Trail de La Reid 19/05/2012 - 20 Km
Place Nom Prenom Temps Km/h Place. Cat. Cat.
1 HERBET HENRY 271 1:22:06 14,6 1 V2
2 COLLYN DAVID 276 1:22:48 14,5 1 V1
3 LEMAIRE CHRISTOPHE 252 1:23:28 14,4 1 S
4 GRENIER LAURENT 296 1:25:22 14,1 2 S
5 BRENNENRAEDTS CEDRIC 320 1:31:08 13,2 3 S
6 CHARLE CYRILLE 327 1:31:45 13,1 4 S
7 DEBROUX SEBASTIEN 309 1:31:58 13,0 5 S
8 DELCHAMBRE RENAUD 310 1:32:30 13,0 6 S
9 MARCHOT CHRISTIAN 298 1:32:35 13,0 2 V1
10 HARDY PATRICK 297 1:32:43 12,9 2 V2
11 FRANSOLET JONATHAN 302 1:34:48 12,7 7 S
12 BEAUMONT OLIVIER 290 1:35:46 12,5 3 V1
13 LOMRE FRED 286 1:35:49 12,5 8 S
14 DHEUR MAXIME 303 1:36:00 12,5 9 S
15 BLEUART PHILIPPE 270 1:36:25 12,4 3 V2
16 ESTEBEZ ANDRE 314 1:36:33 12,4 10 S
17 LOPEZ-NAVA DIDIER 315 1:36:34 12,4 4 V1
18 DELCHAMBRE NICOLAS 311 1:36:40 12,4 11 S
19 MARTHOZ DAMIEN 264 1:36:43 12,4 5 V1
20 DUYSENS ARNAUD 273 1:37:02 12,4 12 S
21 COELEN PATRICK 265 1:40:58 11,9 13 S
22 IERACE RICHARD 282 1:40:59 11,9 6 V1
23 BREVER JEAN FRANCOIS 274 1:41:52 11,8 14 S
24 CHATELAIN JULIEN 321 1:42:16 11,7 15 S
25 CLAROS FABIO 284 1:42:50 11,7 1 EG
26 BESONHE SIMON 268 1:43:19 11,6 16 S
27 FRANSOLET YVES 304 1:43:20 11,6 4 V2
28 KAIVERS DANIEL 272 1:44:31 11,5 5 V2
29 DEWEZ YVES 262 1:45:47 11,3 7 V1
30 SIMONS JOSIANE 266 1:46:11 11,3 1 A2
31 MOREAU MICHELE 278 1:46:20 11,3 2 A2
32 DUCHENE ISABELLE 300 1:46:21 11,3 3 A2
33 LEMAIRE MICHEL 308 1:47:56 11,1 8 V1
34 MAGIS JEAN-BENOIT 307 1:50:40 10,8 17 S
35 DEFLANDRE JEAN MARIE 295 1:51:44 10,7 9 V1
36 BONVOISIN JEAN MARC 263 1:52:31 10,7 10 V1
37 PETIT EMMANUEL 267 1:52:46 10,6 6 V2
38 PIERRON ROLAND 294 1:53:44 10,6 1 V3
39 MICHA YVES 275 1:55:03 10,4 18 S
40 PROESMAN FABRICE 313 1:55:14 10,4 11 V1
41 MERVEILLE PIERRE 312 1:55:16 10,4 7 V2
42 THISS MAC 328 1:55:35 10,4 8 V2
43 SCHMETZ OLIVIER 291 1:55:38 10,4 19 S
44 DELFORGE SERGE 289 1:55:55 10,4 20 S
45 WANSART NICOLAS 316 1:55:56 10,4 21 S
46 DINON SEBASTIEN 283 1:57:32 10,2 22 S
47 FORTHOMME PIERRE 322 1:57:37 10,2 23 S
48 MINGUET LAURENCE 318 1:57:51 10,2 1 A1
49 BUCHE JEAN-PASCAL 317 1:57:52 10,2 12 V1
50 SCHRODER NANCY 285 2:02:39 9,8 2 A1
51 KOCKLENBERG FABIENNE 287 2:03:43 9,7 3 A1
52 GAUTHY ISABELLE 288 2:03:44 9,7 4 A1
53 PLUMACKER ERIC 293 2:03:45 9,7 9 V2
54 CONPAIN KEVIN 253 2:04:12 9,7 24 S
55 FORTEMPS MICHEL 260 2:04:12 9,7 10 V2
56 NICAISE SEVERINE 251 2:04:14 9,7 5 A1
57 THEATRE JEAN BENOIT 280 2:04:43 9,6 13 V1
58 HENDRICKS PATRICK 292 2:05:32 9,6 14 V1
59 ANDRE CARLOS 259 2:10:36 9,2 15 V1
60 PROPS SYLVAIN 281 2:14:11 8,9 16 V1
61 MELISEN SERGE 256 2:14:12 8,9 2 V3
62 TRENTESEAUX THOMAS 254 2:14:34 8,9 2 EG
63 TRENTESEAUX JACQUES 255 2:14:37 8,9 17 V1
64 SPOELDER MAJET 301 2:15:36 8,8 6 A1
65 LOTTEFIER ANNICK 279 2:23:15 8,4 7 A1
66 LINSMEAU FRED 305 2:23:19 8,4 25 S
67 GOHY VALERIE 269 2:23:20 8,4 8 A1
68 FOGEN ODILE 257 2:23:45 8,3 1 D
69 KEUTGEN PATRICK 258 2:23:46 8,3 18 V1
70 MARTUCCI ANNICK 299 2:27:11 8,2 9 A1
71 LABASSE CHRISTINE 306 2:27:12 8,2 4 A2
72 BOULANGER GENEVIEVE 319 2:28:28 8,1 10 A1
73 BORN FRANCOISE 277 2:28:28 8,1 5 A2
74 LEGRAIN CECILE 324 2:31:08 7,9 2 D
75 DEPOUHON CATHERINE 261 2:31:45 7,9 6 A2
76 LEGRAIN BENOIT 323 2:36:00 7,7 26 S
77 PONSARD MARC 326 2:53:05 6,9 27 S
78 SCHREURS BERNARD 325 2:53:05 6,9 28 S